sat.trackr.live / text

‹ back to catalog

HORN-R

NORAD 69507 · 2026-132F

PAYLOAD ACTIVE UNKNOWN

§ Identity

Operator
Country
JPN
Launch date
2026-06-12
Launch site
TANSC
Launch vehicle
Mass (kg)
RCS (m²)

External: N2YO · Heavens-Above · Gunter

§ Orbital elements

Epoch: 2026-09-17T15:14:02.946048Z

Period
94.66 min
Inclination
97.6783°
Eccentricity
0.0004940
Mean motion
15.21249679 rev/d
Perigee alt
498.7 km
Apogee alt
505.5 km
Semi-major
6,880.2 km
B*
9.0129e-5
RAAN
324.6402°
Arg perigee
315.0349°
Mean anomaly
45.0485°
Rev number
1,472

§ Raw data

HORN-R1 69507U 26132F   26260.63475632  .00001940  00000+0  90129-4 0  99912 69507  97.6783 324.6402 0004940 315.0349  45.0485 15.21249679 14728

JSON: /api/v1/satellites/69507 · /tle

For live sub-satellite position, see the globe view (requires WebGL).

§ Visibility from observer

Set your observer location to see the next 7 days of passes ≥ 10°. The values pass through the URL so the page stays shareable.

No JS? Fill the form by hand. The geolocation button needs JavaScript.